AirNav   Air Wisconsin Up To $57,000 Bonus
 
 385 users online  

5F5 Bluebird Hill Airport
Keithville, Louisiana, USA

GOING TO KEITHVILLE?


FAA INFORMATION EFFECTIVE 20 JUNE 2019

Location

FAA Identifier: 5F5
Lat/Long: 32-20-40.5600N / 093-47-59.6300W
32-20.676000N / 093-47.993833W
32.3446000 / -93.7998972
(estimated)
Elevation: 180 ft. / 55 m (estimated)
Variation: 05E (1985)
From city: 2 miles NE of KEITHVILLE, LA
Time zone: UTC -5 (UTC -6 during Standard Time)
Zip code: 71047

Airport Operations

Airport use: Open to the public
Activation date: 11/1972
Control tower: no
ARTCC: FORT WORTH CENTER
FSS: DE RIDDER FLIGHT SERVICE STATION
NOTAMs facility: DRI (NOTAM-D service available)
Attendance: CONTINUOUS
Wind indicator: yes
Segmented circle: no
Lights: FOR LIRL RWY 18/36 CALL 318-925-2302.
Beacon: white-green (lighted land airport)
FOR ROTG BCN CALL 318-925-2302.

Airport Communications

CTAF: 122.9
WX ASOS at SHV (6 nm N): PHONE 318-636-5767
WX ASOS at DTN (12 nm N): 118.525 (318-425-7967)
WX AWOS-3PT at 3F3 (16 nm S): 119.125 (318-872-3537)

Nearby radio navigation aids

VOR radial/distance  VOR name  Freq  Var
EMGr245/10.9ELM GROVE VORTAC111.2007E
EICr172/25.6BELCHER VORTAC117.4007E

 
NDB name  Hdg/Dist  Freq  Var  ID
MANSFIELD350/16.941404EMSD -- ... -..
CARTHAGE065/27.133204ERPF .-. .--. ..-.
AMASON026/35.634104ECZJ -.-. --.. .---

Airport Services

Parking: hangars and tiedowns
Airframe service: MINOR
Powerplant service: MINOR
Bottled oxygen: NONE
Bulk oxygen: NONE

Runway Information

Runway 18/36

Dimensions: 3000 x 40 ft. / 914 x 12 m
Surface: asphalt/turf, in fair condition
RY 36 FIRST 2570 FT GRASS, LAST 430 FT PAVED. RWY 18-36 VERY UNLEVEL GRADE FULL LENGTH.
Runway edge lights: low intensity
Operational restrictions: CLSD SS-SR.
RUNWAY 18  RUNWAY 36
Latitude: 32-20.923000N32-20.429000N
Longitude: 093-47.993833W093-47.993833W
Traffic pattern: leftleft
Displaced threshold: 430 ft.
18/36 DSPLCD THLDS MKD WITH ONE ORANGE CONE ON EACH SIDE. RWY ENDS STOP AT 50': TREES.
850 ft.
Obstructions: 57 ft. trees, 309 ft. from runway, 1:1 slope to clear
+ 32 FT MARKED POWER LINES BOTH SIDES OF CNTRLN 156 FT FROM RY END.
112 ft. trees, 2554 ft. from runway, 20:1 slope to clear
APCH RATIO 20:1 TO DSPLCD THLD.

Airport Ownership and Management from official FAA records

Ownership: Privately-owned
Owner: HUGH R HUNTON
2569 BARRON ROAD
KEITHVILLE, LA 71047
Phone 318-925-2302
Manager: HUGH R HUNTON
2569 BARRON ROAD
KEITHVILLE, LA 71047
Phone 318-925-2302
TELEPHONE NUMBER FOR HUGH HUNTON.

Airport Operational Statistics

Aircraft based on the field: 20
Single engine airplanes: 14
Gliders airplanes: 4
Ultralights: 2
    
Aircraft operations: avg 79/month *
84% local general aviation
16% transient general aviation
* for 12-month period ending 12 December 2018

Additional Remarks

FOR CD CTC FORT WORTH ARTCC AT 817-858-7584.

Instrument Procedures

There are no published instrument procedures at 5F5.

Some nearby airports with instrument procedures:

KSHV - Shreveport Regional Airport (6 nm N)
KBAD - Barksdale Air Force Base (12 nm NE)
KDTN - Shreveport Downtown Airport (12 nm N)
3F3 - C E 'Rusty' Williams Airport (16 nm S)
4F2 - Panola County Airport-Sharpe Field (27 nm W)
 
Loc | Ops | Rwys | IFR | FBO | Links
Com | Nav | Svcs | Stats | Notes
Area around 5F5 (Bluebird Hill Airport)
 
Road maps at: MapQuest Bing Google
 
Aerial photo
WARNING: Photo may not be current or correct
Aerial photo of 5F5 (Bluebird Hill Airport)
Photo by Carl Hennigan
Taken in April 2007

Do you have a better or more recent aerial photo of Bluebird Hill Airport that you would like to share? If so, please send us your photo.

 
Sectional chart

 
Airport distance calculator
Flying to Bluebird Hill Airport? Find the distance to fly.

From to 5F5

Sunrise and sunset
Times for 25-Jun-2019
 Local
(UTC-5)
 Zulu
(UTC)
Morning civil twilight05:4210:42
Sunrise06:1111:11
Sunset20:2501:25
Evening civil twilight20:5301:53

Current date and time
Zulu (UTC)  25-Jun-2019 08:45:07
Local (UTC-5)  25-Jun-2019 03:45:07
 
METAR
KSHV 
7nm N 
250756Z 17005KT 10SM BKN270 22/21 A2995 RMK AO2 SLP137 T02220211
KBAD 
12nm NE 
250756Z AUTO 13004KT 10SM CLR 21/21 A2994 RMK AO2 SLP140 T02140214
KDTN 
13nm N 
250753Z AUTO 00000KT 10SM CLR 24/21 A2994 RMK AO2 SLP136 T02440211
K3F3 
16nm S 
250835Z AUTO 14004KT 10SM CLR 22/22 A2999 RMK AO2 T02240217
TAF
KSHV 
7nm N 
250521Z 2506/2606 VRB03KT P6SM FEW250 FM251500 19007KT P6SM SCT040 BKN250
KBAD 
12nm NE 
250200Z 2502/2608 20006KT 9999 BKN250 QNH2991INS BECMG 2518/2519 19012KT 9999 VCTS BKN040CB QNH3002INS BECMG 2600/2601 18006KT 9999 NSW SCT250 QNH2999INS TX32/2521Z TN21/2512Z
NOTAMs
Click for the latest NOTAMs
NOTAMs are issued by the DoD/FAA and will open in a separate window not controlled by AirNav.

 

 
 

Would you like to see your business listed on this page?

 If your business provides an interesting product or service to pilots, flight crews, aircraft, or users of the Bluebird Hill Airport, you should consider listing it here.  To start the listing process, click on the button below
 
Add a business
 

Other Pages about Bluebird Hill Airport

Update a link
 
Copyright © AirNav, LLC. All rights reserved. Privacy Policy  Contact